Theta_e
293 293 292 292 292 292 292 292 291 291 291 291 291 291 291 291 292 292 292 292 292 292 292 291 291 291 291 291 291 291 291 291 291 292 292 293 293 294 294 294 295 295 295 295 295 294 294 294 294 294 294 294 294 294 294 294 294 294 294 294 294 294 294 294 294 294 294 294 294 294 294 293 293 293 293 294 294 294 294 294 294 294 294 295 295 295
292 292 292 292 292 291 291 291 291 291 291 291 291 291 291 291 291 291 292 291 291 291 291 291 291 291 291 291 291 291 291 291 291 291 292 292 293 293 293 294 294 294 294 294 294 294 294 294 293 293 294 294 294 294 294 294 294 294 294 294 293 293 293 293 293 293 293 293 293 293 293 293 293 293 293 293 293 293 294 294 294 294 294 295 295 295
292 292 292 292 291 291 291 291 291 290 290 290 291 291 291 291 291 291 291 291 291 291 291 291 291 291 291 291 291 291 291 291 291 291 291 292 292 292 293 293 293 293 293 293 293 293 293 293 293 293 293 293 293 293 293 293 293 293 293 293 293 293 293 293 293 293 293 293 293 293 293 293 293 293 293 293 293 293 293 294 294 294 294 295 295 295
292 292 292 291 291 291 291 291 290 290 290 290 291 291 291 291 291 291 291 291 291 291 290 290 290 290 291 291 291 291 291 291 291 291 291 291 292 292 292 292 293 293 293 293 293 293 293 293 293 293 293 293 293 293 293 293 293 293 293 293 293 293 293 293 293 293 293 293 293 293 293 293 293 293 293 293 293 293 293 293 294 294 294 294 294 295
292 292 291 291 291 290 290 290 290 290 290 290 291 291 291 290 290 291 291 291 290 290 290 290 290 290 290 291 291 291 291 291 291 291 291 291 292 292 292 292 292 292 292 292 292 293 293 293 293 293 293 293 293 293 293 293 293 293 293 293 293 293 293 293 293 293 292 293 293 292 292 292 292 292 293 293 293 293 293 293 293 294 294 294 294 295
292 291 291 291 290 290 290 290 290 290 290 290 291 290 290 290 290 291 291 291 291 291 290 290 291 291 291 291 291 291 291 291 291 291 291 291 292 292 292 292 292 292 292 292 292 292 292 292 292 292 292 292 292 292 292 292 292 292 292 292 293 293 293 293 292 292 292 292 292 292 292 292 292 292 292 292 292 292 292 292 293 293 293 294 294 294
292 291 291 291 290 290 290 290 290 290 291 291 291 291 291 290 290 290 290 290 290 290 291 291 291 291 291 291 291 291 290 291 291 291 291 291 291 292 292 292 292 292 292 292 292 292 292 292 292 292 292 292 292 292 292 292 292 292 292 292 292 292 292 292 292 292 292 292 292 291 291 292 292 292 292 292 292 292 292 292 292 292 293 293 293 294
292 291 291 291 290 290 290 290 290 290 290 291 291 291 290 291 291 291 290 290 290 290 291 291 291 291 291 291 291 290 290 290 291 291 291 291 291 291 292 292 292 292 292 292 292 292 292 292 292 292 292 292 292 292 292 292 292 292 292 292 292 292 292 292 292 291 291 291 291 291 291 291 291 291 291 291 291 291 291 292 292 292 292 293 293 293
291 291 291 291 290 290 290 291 291 291 290 290 290 290 290 290 290 290 291 291 291 291 291 291 291 291 291 290 290 290 290 290 291 291 291 291 291 291 291 291 291 291 291 291 291 291 292 292 292 292 292 292 292 292 292 292 292 292 292 291 291 291 291 291 291 291 291 291 291 291 291 291 291 291 291 291 291 291 291 291 291 291 292 292 292 292
291 291 291 291 290 291 291 291 291 291 290 290 290 290 290 290 290 291 291 291 291 291 291 291 291 290 290 290 290 290 290 290 290 290 291 291 291 291 291 291 291 291 291 291 291 291 291 291 292 292 291 291 291 291 291 291 291 291 291 291 291 291 291 290 290 290 290 290 290 290 290 291 291 291 291 291 291 291 291 291 291 291 291 291 292 292
291 291 291 291 291 291 291 291 291 290 290 290 290 290 290 291 291 291 291 291 291 291 290 290 290 290 290 290 290 290 290 290 290 290 291 291 291 291 291 291 291 291 291 291 291 291 291 291 291 291 291 291 291 291 291 291 291 291 291 291 290 290 290 290 290 290 290 290 290 290 290 290 290 290 290 290 291 291 291 291 291 291 291 291 291 291
291 291 291 291 291 291 291 291 290 290 290 290 290 291 291 291 291 291 291 291 290 290 290 290 290 290 290 290 290 290 290 290 290 290 291 291 291 291 291 291 291 291 291 291 291 291 291 291 291 291 291 291 291 291 291 291 291 291 290 290 290 290 290 290 290 290 290 290 290 290 290 290 290 290 290 290 290 290 290 291 291 291 291 291 291 291
291 291 291 291 291 291 291 290 290 290 290 290 291 291 291 291 290 290 290 290 290 290 290 290 290 290 290 290 290 290 290 290 290 291 291 291 291 291 291 291 291 291 291 291 291 291 291 291 291 291 291 291 291 291 290 290 290 290 290 290 290 290 290 289 289 289 289 289 289 289 289 290 290 290 290 290 290 290 290 290 291 291 291 291 291 291
291 291 291 291 290 290 290 290 290 290 290 290 290 290 290 290 290 290 290 290 290 290 290 290 290 290 290 290 290 290 290 290 290 291 291 291 291 291 291 291 291 291 291 291 291 291 291 291 290 290 290 290 290 290 290 290 290 290 290 290 289 289 289 289 289 289 289 289 289 289 289 289 289 289 290 290 290 290 290 290 291 291 291 291 291 291
291 291 290 290 290 290 290 290 290 290 290 290 290 290 290 290 290 290 290 290 290 290 290 290 290 290 290 290 290 290 290 290 291 291 291 291 291 291 291 290 290 290 290 290 290 290 290 290 290 290 290 290 290 290 290 290 290 289 289 289 289 289 289 289 289 289 289 289 289 289 289 289 289 289 290 290 290 290 290 290 290 291 291 291 291 291
290 290 290 290 290 290 290 290 290 290 290 290 290 290 290 290 290 290 290 290 290 290 290 290 290 290 290 290 290 290 290 290 290 290 290 290 290 290 290 290 290 290 290 290 290 290 290 290 290 290 290 290 290 290 289 289 289 289 289 289 289 289 288 288 288 289 289 289 289 289 289 289 289 289 290 290 290 290 290 290 290 290 290 291 291 291
290 290 290 290 290 290 289 289 289 289 289 289 289 289 289 289 289 290 290 290 290 290 290 290 290 290 290 290 290 290 290 290 290 290 290 290 290 290 290 290 290 289 289 290 290 290 290 290 290 290 290 289 289 289 289 289 289 289 288 288 288 288 288 288 288 288 288 289 289 289 289 289 289 289 289 289 289 289 289 289 289 289 289 290 290 290
289 289 289 289 289 289 289 289 289 289 289 289 289 289 289 289 289 290 290 290 290 290 290 290 290 290 290 290 290 290 290 290 290 290 289 289 289 289 289 289 289 289 289 289 289 289 289 289 289 289 289 289 289 289 288 288 288 288 288 288 288 288 288 288 288 288 288 288 288 288 288 289 289 289 289 289 288 288 289 289 289 289 289 290 290 290
289 288 288 288 288 288 288 289 289 289 289 289 289 289 289 289 289 290 290 290 290 290 290 290 290 290 290 290 290 290 290 290 289 289 289 289 289 289 289 289 289 289 289 289 289 289 289 289 289 289 289 289 288 288 288 288 288 288 288 288 288 288 288 288 288 288 288 288 288 288 288 288 289 289 289 289 289 289 289 289 289 289 290 290 290 290
288 288 288 288 288 288 288 289 289 289 289 289 289 289 289 289 289 290 290 290 290 290 290 290 290 290 290 290 290 289 289 289 289 289 289 289 289 289 289 289 289 289 289 289 289 289 289 288 288 288 288 288 288 288 288 288 288 288 288 288 288 288 288 288 288 288 288 288 288 288 288 288 289 289 289 289 289 289 289 290 290 290 290 290 290 290
287 287 287 287 288 288 288 288 289 289 289 289 289 289 289 289 289 290 290 290 290 290 290 290 290 290 290 290 289 289 289 289 289 289 289 288 288 289 289 289 289 289 289 289 289 288 288 288 288 288 288 288 288 288 288 288 288 288 288 288 288 288 288 287 287 287 288 288 288 288 289 289 289 289 289 289 289 290 290 290 290 290 290 291 291 291
287 287 288 288 288 288 288 288 289 289 289 289 289 289 289 289 290 290 291 291 291 291 290 290 290 289 289 289 289 288 288 288 288 288 288 288 288 288 289 289 288 288 288 288 288 288 288 288 288 288 288 288 288 287 287 287 287 287 287 288 288 287 287 287 287 288 288 288 289 289 289 289 289 289 290 290 290 290 290 290 290 290 290 290 290 290
287 288 288 288 288 288 288 289 289 289 289 289 289 289 290 290 291 291 291 291 291 290 290 289 289 288 288 288 288 288 288 288 288 288 288 288 288 288 288 288 288 288 288 288 288 288 288 287 287 287 287 287 287 287 287 287 287 287 287 287 287 287 287 287 288 288 288 289 289 289 289 289 290 290 290 290 290 290 290 290 290 290 290 290 290 290
288 288 288 288 289 289 289 289 289 289 289 289 289 290 291 291 291 291 291 291 290 289 289 288 288 288 288 288 288 288 288 288 288 288 288 288 288 288 288 288 288 288 288 288 288 287 287 287 287 287 287 287 287 287 287 287 287 287 287 287 287 287 288 288 288 289 289 289 289 289 289 289 289 289 289 289 289 289 289 289 289 289 290 290 290 289
288 289 289 289 289 289 289 289 289 289 289 289 290 291 291 292 291 291 290 289 289 289 288 288 287 287 287 287 287 287 287 287 287 287 287 287 287 287 287 287 287 287 287 287 287 287 287 287 287 287 287 287 287 287 287 287 287 287 287 287 287 287 288 288 288 288 289 289 289 288 288 288 288 288 288 288 288 288 288 289 289 290 290 290 289 288
288 289 289 289 289 289 289 289 289 289 289 290 290 291 291 291 290 289 289 289 288 288 287 287 287 287 287 287 287 287 287 287 287 287 287 287 287 287 287 287 287 287 287 287 287 287 286 286 286 286 286 286 286 286 286 287 287 287 287 287 287 288 288 288 288 288 288 288 287 287 287 287 287 287 287 288 288 288 289 289 289 289 289 288 287 287
289 289 289 289 289 289 289 289 289 289 289 290 290 290 290 289 289 289 288 288 288 287 287 287 286 286 286 286 286 287 287 286 286 286 286 286 286 286 286 286 286 287 286 286 286 286 286 286 286 286 286 286 286 286 286 287 287 287 287 287 287 287 287 287 287 287 287 287 287 287 287 287 287 287 287 287 288 288 288 288 288 287 287 286 286 286
289 289 289 289 289 289 289 289 289 289 289 289 289 289 289 288 288 288 288 287 287 286 286 286 286 286 286 286 286 286 286 286 286 286 286 286 286 286 286 286 286 286 286 286 286 286 286 286 286 286 286 286 286 286 286 287 287 287 287 287 287 287 287 287 287 287 287 286 286 286 286 286 287 287 287 287 287 287 287 287 287 286 286 286 286 286
289 290 290 289 289 289 289 289 289 289 289 288 288 288 288 288 287 287 287 287 286 286 285 285 285 285 285 285 285 285 285 286 286 286 286 286 286 286 286 286 286 286 285 285 285 285 285 286 286 286 286 286 286 286 286 286 286 286 286 286 286 286 286 286 286 286 286 286 286 286 286 286 286 286 286 287 286 286 286 286 286 286 286 286 286 286
290 290 290 290 289 289 289 289 288 288 288 288 288 288 287 287 287 286 286 286 286 285 285 285 285 284 284 284 284 284 285 286 286 286 286 286 286 286 286 285 285 285 285 285 285 285 285 286 286 286 286 286 286 286 286 286 286 286 286 286 286 286 286 286 286 286 286 286 286 286 286 286 286 286 286 286 286 286 286 286 286 286 286 286 286 286
290 290 290 290 289 289 288 288 288 288 288 288 288 288 287 287 286 286 286 286 285 285 285 284 284 284 283 284 284 284 285 286 286 286 285 285 285 285 285 285 285 284 284 284 284 285 285 285 286 286 286 285 285 285 285 285 285 285 285 285 285 286 286 286 286 286 286 286 286 286 286 286 286 286 286 286 286 286 286 286 286 285 285 285 285 285
290 290 289 289 288 288 288 288 288 288 288 288 288 287 287 287 286 286 286 285 285 284 284 284 283 283 283 283 284 284 285 285 285 285 285 284 284 284 284 284 284 284 284 284 284 284 285 285 285 285 285 285 285 285 285 285 285 285 285 285 285 285 285 285 285 285 285 285 285 285 285 285 285 286 286 286 286 285 285 285 285 285 285 285 285 285
289 289 288 288 288 288 288 288 288 288 288 288 288 287 287 286 286 286 285 285 284 284 284 283 283 283 283 283 283 284 284 284 284 284 284 284 284 284 284 284 284 284 284 284 284 284 284 285 284 284 284 284 284 284 284 285 285 285 285 285 285 285 285 285 285 285 285 285 285 285 285 285 285 285 285 285 285 285 285 285 285 285 285 285 285 284
289 288 288 288 288 288 288 288 288 288 287 287 287 286 286 286 285 285 285 284 284 284 283 283 283 283 283 283 283 283 284 284 284 284 283 283 283 283 283 283 283 283 284 284 284 284 284 284 284 284 284 284 284 284 284 284 284 284 284 285 285 285 285 285 285 285 285 285 285 285 285 285 285 285 285 285 285 285 285 285 285 285 284 284 284 284
288 288 288 288 288 288 287 287 287 287 287 286 286 286 285 285 285 285 284 284 284 283 283 282 282 282 283 283 283 283 283 284 284 284 283 283 283 283 283 283 283 283 284 284 284 284 284 284 283 283 284 284 284 284 284 284 284 284 284 284 284 284 284 284 284 284 284 284 284 284 284 285 285 285 285 285 285 285 285 285 284 284 284 284 284 284
288 288 288 287 287 287 287 287 287 287 286 286 286 285 285 285 284 284 284 284 283 283 282 282 282 282 282 282 282 283 283 284 284 284 283 283 282 282 282 283 283 283 284 284 284 283 283 283 283 283 283 284 284 284 284 284 284 284 284 284 284 284 284 284 284 284 284 284 284 284 284 284 284 285 285 285 284 284 284 284 284 284 284 284 284 283
287 287 287 287 287 287 287 287 286 286 285 285 285 285 285 284 284 284 284 283 283 283 282 282 282 282 282 282 282 282 283 283 283 283 283 283 282 282 282 282 283 283 284 284 283 283 283 283 283 283 283 283 283 284 284 284 284 284 284 284 284 284 284 284 284 284 284 284 284 284 284 284 284 284 284 284 284 284 284 284 284 284 283 283 283 283
287 287 287 287 287 286 286 286 286 285 285 285 285 285 284 284 284 284 284 283 283 283 283 282 283 283 283 282 282 282 282 282 283 283 283 283 282 282 282 283 283 283 283 283 283 283 283 283 283 283 283 283 283 283 284 283 283 283 283 284 284 284 284 284 284 284 284 284 284 284 284 284 284 284 284 284 284 284 283 283 283 283 283 283 283 283
286 286 286 286 286 286 286 285 285 285 285 285 285 285 284 284 284 284 284 284 283 283 283 282 282 282 282 282 282 282 282 282 283 283 283 282 282 282 283 283 283 283 283 283 283 283 283 283 283 283 283 283 283 283 283 283 283 283 283 283 284 284 284 284 284 284 284 284 284 284 284 284 284 284 284 284 283 283 283 283 283 283 282 282 282 282
286 286 286 286 286 286 285 285 285 285 285 285 285 285 285 285 285 284 284 283 283 282 282 282 282 282 282 282 282 282 282 282 283 283 283 282 282 283 283 283 283 283 283 283 283 283 283 283 283 283 283 283 283 283 283 283 283 283 283 283 283 284 284 284 284 284 284 284 284 284 284 284 284 284 284 283 283 283 283 282 282 282 282 282 282 282
286 286 286 286 286 285 285 285 285 285 285 285 285 285 285 284 284 283 283 283 282 282 282 281 281 282 282 282 282 282 282 282 282 282 282 282 283 283 283 283 283 283 283 283 283 283 283 283 283 283 283 283 283 283 283 283 283 283 283 283 283 284 284 284 284 284 284 284 284 284 284 284 284 283 283 283 283 282 282 282 282 282 282 282 282 282
286 286 286 286 285 285 285 285 285 285 285 285 284 284 284 283 283 282 282 282 282 281 281 281 281 281 281 282 282 282 282 282 282 282 282 283 283 283 283 283 283 283 283 283 283 283 283 283 283 283 283 283 283 283 283 283 283 283 283 283 283 283 283 283 284 284 284 284 284 284 284 284 283 283 283 283 282 282 282 282 282 282 282 282 282 282
286 285 285 285 285 285 285 285 285 285 284 284 284 284 283 283 282 282 281 281 281 281 281 280 280 280 281 281 282 282 282 282 282 282 282 283 283 283 283 283 283 283 283 283 283 283 283 283 283 283 283 283 282 282 282 283 283 283 283 283 283 283 283 284 284 284 284 284 283 283 283 283 283 283 282 282 282 282 282 282 282 281 282 282 282 282
285 285 285 285 285 285 285 284 284 284 284 283 283 283 283 283 282 281 281 280 280 280 280 280 280 280 281 281 281 281 281 282 282 282 283 283 283 284 283 283 283 283 282 282 283 283 283 283 283 283 283 283 282 282 282 283 283 283 284 283 283 283 283 284 284 283 283 283 283 283 283 283 283 282 282 282 282 282 282 281 281 281 281 282 282 282
285 285 285 285 285 284 284 284 284 283 283 283 283 283 283 282 282 281 280 280 280 280 280 279 279 280 280 280 281 281 281 281 282 282 283 283 283 283 283 283 283 282 282 282 282 282 282 283 283 283 283 283 283 282 282 283 283 283 283 283 283 283 283 283 283 283 283 283 283 283 283 282 282 282 282 282 282 282 282 281 281 281 281 282 282 282
285 285 285 285 285 284 284 284 283 283 283 283 283 283 282 282 281 280 280 279 280 280 280 279 279 279 280 280 280 280 281 281 282 282 283 283 283 283 283 283 283 282 282 282 282 282 282 282 283 283 283 283 283 283 283 283 283 283 283 283 283 283 284 284 283 283 283 283 283 283 282 282 282 282 282 282 282 281 281 281 281 282 282 282 282 282
285 285 284 284 284 284 284 284 283 283 283 283 283 282 282 281 280 280 280 280 280 280 280 279 279 279 279 280 280 280 280 281 281 282 283 283 283 283 283 283 283 283 282 282 282 282 282 282 283 282 282 283 283 283 284 284 283 283 283 283 284 284 284 284 283 283 283 283 282 282 282 282 281 281 281 281 281 281 281 282 282 282 282 282 282 282
284 284 284 284 284 284 284 284 283 283 283 282 282 281 281 280 280 279 280 280 280 280 280 279 279 279 279 279 280 280 280 281 281 282 283 283 283 283 283 283 283 283 283 283 282 282 282 282 283 283 283 283 283 283 284 284 284 283 283 284 284 284 284 283 283 283 283 282 282 282 281 281 281 281 281 281 281 281 281 282 282 282 282 282 282 282
284 284 284 284 283 283 283 283 283 282 282 282 281 281 280 280 280 279 280 280 280 280 279 279 279 279 279 279 280 280 280 281 281 282 283 283 283 283 283 283 283 283 283 283 282 282 282 282 283 283 283 283 283 283 284 284 284 284 284 284 284 283 283 283 283 283 282 282 282 282 281 281 281 281 281 281 281 281 281 282 282 282 282 282 282 282
284 284 284 283 283 283 283 283 282 282 282 281 281 280 280 280 280 280 280 280 280 280 279 279 278 278 279 279 279 280 280 280 281 281 282 283 283 283 283 283 283 282 282 282 282 282 282 282 283 283 283 283 283 283 283 283 283 283 283 283 283 283 283 283 283 282 282 282 281 281 281 281 281 281 281 281 281 281 281 282 282 282 282 282 282 282
284 284 283 283 283 283 283 282 282 282 281 281 280 280 280 280 280 280 280 280 279 279 279 279 278 278 278 279 279 279 280 280 280 281 282 283 283 283 283 283 282 281 281 281 281 282 282 282 282 283 283 284 284 283 283 283 283 283 283 283 283 283 283 283 282 282 282 281 281 281 281 281 281 281 281 281 281 281 281 282 282 282 282 282 282 282
Wind_Speed
34 35 35 36 36 37 38 38 37 36 37 38 38 39 39 40 41 41 41 41 40 40 40 40 40 40 40 40 40 40 40 40 40 40 39 39 38 37 37 36 35 35 34 34 34 34 34 35 35 36 36 37 37 37 38 38 38 38 39 40 40 41 41 41 42 42 43 43 44 44 45 45 46 46 45 44 44 44 44 44 44 45 45 45 44 44
35 35 36 36 35 35 36 36 35 33 34 36 37 39 39 40 40 40 40 39 38 38 38 38 38 39 40 40 40 40 40 40 40 40 40 40 39 39 38 38 37 37 36 36 35 35 35 36 36 37 37 37 38 38 38 39 39 40 40 41 41 42 42 42 43 43 43 44 44 44 45 45 45 45 45 44 44 44 44 44 45 45 45 45 45 45
37 37 37 36 35 34 34 35 34 33 33 35 37 38 38 39 38 38 37 37 37 37 37 37 38 38 39 39 39 39 39 39 39 39 39 39 39 39 39 38 38 37 37 36 36 36 36 36 37 37 37 38 38 38 39 39 40 41 41 42 42 43 43 43 43 44 44 44 45 45 44 44 45 45 45 44 44 44 44 44 45 45 45 46 46 46
38 37 36 35 34 33 33 33 33 34 34 35 37 37 37 36 36 36 36 36 36 36 37 37 37 37 37 37 38 38 38 38 38 38 38 39 39 39 38 38 38 37 37 37 36 36 36 37 37 38 38 38 39 39 40 40 41 41 42 42 42 43 43 43 43 44 44 45 45 45 45 45 45 45 45 45 45 45 45 45 45 45 45 45 46 46
38 36 35 34 34 34 33 33 33 34 35 35 35 35 35 34 34 34 34 34 34 35 36 36 35 35 35 35 36 36 36 37 37 38 39 39 39 38 38 38 38 37 37 37 37 37 37 37 37 38 38 39 39 39 40 41 41 42 42 42 42 42 42 43 43 44 44 45 45 45 45 45 45 45 45 45 45 45 45 45 45 45 45 45 45 46
38 36 34 33 33 34 34 34 33 33 34 34 34 33 33 32 32 32 33 33 33 34 34 33 33 32 32 33 34 35 36 37 38 38 38 38 38 38 38 38 37 37 37 37 37 36 36 37 37 38 38 39 39 40 40 41 42 42 42 42 42 42 43 43 44 44 44 45 45 46 46 46 45 45 45 45 45 45 45 45 45 45 45 45 45 46
39 37 35 34 34 34 33 33 32 32 31 32 32 32 31 31 31 31 32 33 33 33 32 32 31 31 31 31 32 34 36 37 37 37 37 37 38 38 37 37 37 36 36 36 36 36 36 37 37 38 38 39 39 40 41 42 43 43 43 43 43 43 43 43 43 44 44 45 45 46 45 45 46 46 45 45 45 45 45 45 45 45 45 45 45 46
40 39 36 34 34 34 33 32 31 30 29 30 30 31 31 31 31 31 32 32 31 31 30 30 30 30 29 30 32 34 36 36 36 36 36 36 37 37 37 36 36 36 35 35 35 35 36 37 37 37 38 39 40 40 41 42 43 44 44 44 44 43 43 44 44 44 44 44 44 44 44 44 44 44 44 44 44 44 44 44 44 44 44 44 44 45
37 38 36 33 32 32 32 31 30 28 27 27 28 30 32 33 32 31 30 28 27 27 27 29 30 31 31 32 33 33 33 35 35 36 36 36 37 36 36 36 35 35 34 34 35 35 35 36 37 37 38 39 40 41 42 42 43 43 43 44 44 44 44 45 44 44 43 43 43 43 42 42 42 42 42 43 43 43 43 43 43 43 43 43 43 44
34 34 34 33 31 29 29 30 29 28 27 27 27 28 29 30 30 29 28 27 26 25 26 28 30 31 32 32 32 32 33 35 35 35 36 36 36 35 35 34 34 34 34 34 35 35 36 36 37 38 39 40 42 42 43 43 43 42 43 43 43 43 44 44 44 44 43 42 41 41 41 41 41 42 42 43 43 43 43 43 43 42 42 43 43 44
32 31 30 30 29 28 27 28 28 29 28 27 28 27 25 25 25 26 28 29 29 28 29 29 30 31 32 32 33 34 35 36 35 35 35 35 34 34 33 32 32 32 33 34 35 36 37 38 39 40 41 42 43 43 43 43 42 42 42 42 42 42 42 41 42 42 42 41 40 40 41 41 42 43 43 43 43 43 43 43 43 43 43 44 44 44
30 30 29 29 29 28 28 28 28 28 27 27 27 27 25 24 23 25 28 30 31 32 32 32 31 31 32 33 35 35 36 36 35 34 33 33 32 31 31 31 31 32 33 34 36 37 38 39 41 41 42 42 42 42 42 42 42 41 41 41 40 40 40 40 40 40 41 41 41 41 42 41 42 42 43 43 43 43 43 43 43 44 44 45 45 44
30 29 29 29 29 28 28 28 28 27 26 25 25 26 26 26 26 26 29 31 32 33 33 33 33 33 32 33 33 33 33 33 32 32 32 31 30 30 30 31 33 34 35 36 37 38 39 40 41 42 41 41 41 41 41 40 40 39 39 39 39 39 39 39 40 40 40 40 40 40 41 41 41 42 42 42 43 43 43 43 43 43 43 44 44 45
30 30 29 29 29 29 28 27 27 27 26 25 25 26 27 28 28 28 29 31 32 32 33 34 35 35 34 32 31 30 30 30 30 31 31 30 30 30 31 33 35 36 37 38 38 39 40 40 41 41 40 40 39 39 39 38 38 38 39 39 39 39 39 39 39 39 39 39 39 39 40 41 41 42 42 42 42 42 43 43 43 43 44 44 44 45
30 29 29 29 29 29 28 27 27 27 27 27 27 27 29 29 29 29 29 30 32 33 33 33 35 36 34 31 28 27 27 28 29 30 32 32 32 31 32 35 38 39 39 39 40 41 39 39 39 39 39 38 37 37 37 38 39 40 40 40 40 39 39 39 39 39 39 39 39 39 40 41 41 42 42 43 43 43 44 44 44 44 44 44 45 45
31 30 29 30 30 29 28 27 27 27 28 28 27 27 28 29 29 30 31 31 32 33 33 35 36 36 35 31 27 25 25 28 30 33 34 36 36 35 34 36 39 41 40 40 39 39 38 37 37 37 37 37 37 38 38 39 40 41 41 40 39 39 38 38 38 38 38 39 39 40 40 41 41 42 42 42 43 43 43 43 43 43 44 44 44 44
30 30 30 30 30 30 29 28 28 27 27 28 28 28 28 28 28 30 30 31 32 33 33 33 34 34 35 34 31 27 26 29 32 35 38 40 41 39 37 37 39 41 41 40 39 38 37 37 37 37 37 37 37 38 39 40 41 41 40 39 39 38 38 38 38 38 38 38 39 39 39 40 40 40 41 41 41 41 41 41 41 42 42 43 43 43
30 29 29 30 30 30 30 29 27 26 27 27 28 28 28 27 28 29 31 32 33 34 34 34 34 33 34 34 34 33 30 31 35 39 41 44 44 42 39 37 37 39 40 39 38 37 37 37 36 36 36 37 38 39 40 40 40 40 40 39 39 38 38 38 38 38 38 38 38 38 38 38 39 39 39 39 39 39 40 40 41 41 42 43 43 44
34 33 31 30 30 30 29 29 28 28 27 27 27 28 28 28 29 30 33 35 36 36 36 35 35 35 36 37 38 37 34 35 38 42 42 44 45 43 39 36 36 37 37 38 37 36 36 36 37 37 37 38 39 39 39 39 40 40 39 39 39 38 38 38 38 38 37 38 38 38 39 38 39 39 40 40 40 41 42 42 43 43 44 44 45 45
37 36 34 31 30 31 30 29 28 27 26 26 27 28 29 30 31 33 34 35 36 36 36 37 37 38 38 40 41 40 39 39 41 42 43 44 43 41 37 34 34 35 36 36 36 36 36 36 36 37 38 38 38 38 39 39 39 39 39 39 39 38 38 37 37 37 38 38 38 38 38 39 39 40 40 41 42 42 42 42 43 43 44 44 44 45
39 38 37 35 32 31 31 30 28 27 27 28 28 30 32 33 35 36 37 37 37 37 37 37 38 39 39 42 43 44 43 42 40 40 40 40 40 39 36 32 32 34 36 36 35 35 35 36 36 36 37 37 37 38 39 40 40 40 39 39 38 37 37 37 37 37 37 37 37 38 38 38 39 40 40 41 41 41 42 42 42 43 43 44 45 45
39 38 35 32 30 30 30 30 29 28 28 29 31 32 34 36 37 37 38 37 36 36 37 37 39 42 44 45 45 44 43 39 36 36 37 38 40 39 36 31 31 33 35 36 36 36 35 35 36 36 37 37 38 39 40 40 40 39 38 37 37 36 36 36 36 36 36 36 37 37 38 38 39 39 40 40 41 41 41 42 42 43 44 44 45 46
35 35 33 31 30 29 29 30 30 30 30 30 31 33 34 35 36 36 35 34 34 36 39 43 45 46 46 46 44 41 37 33 31 32 34 35 38 40 36 33 32 34 36 37 36 35 35 35 35 36 37 38 38 39 39 39 39 38 37 36 36 35 35 35 35 35 35 36 36 37 38 38 39 39 40 41 41 42 42 43 43 44 44 44 44 45
31 30 29 28 28 29 29 30 31 31 31 31 33 34 36 36 35 33 32 33 37 41 43 47 48 46 45 42 40 37 33 30 29 30 32 34 36 37 36 34 34 35 37 37 35 35 35 36 36 36 36 38 38 38 38 38 37 36 35 34 34 34 34 34 34 34 35 36 37 38 38 39 40 40 41 41 42 42 42 42 42 42 41 41 42 44
27 27 27 27 28 29 30 30 31 31 31 32 34 35 35 34 34 34 37 41 44 45 44 44 44 42 41 39 36 34 33 30 28 28 30 31 35 37 37 34 33 35 36 36 34 33 34 36 36 36 37 37 37 37 37 36 34 33 33 33 32 32 33 33 34 35 36 38 39 39 40 40 40 41 40 40 40 39 40 40 40 39 39 40 41 43
24 25 26 27 28 29 30 30 30 30 31 33 34 35 34 35 37 41 44 45 44 41 40 38 38 38 38 37 36 35 33 30 28 27 29 30 34 36 36 34 32 32 34 35 34 33 34 36 37 37 37 37 36 35 34 32 31 31 31 31 32 33 34 35 36 37 39 39 40 40 40 40 39 39 38 37 37 38 38 38 38 39 40 41 43 43
23 25 26 28 29 29 29 29 29 30 31 32 33 33 33 36 38 40 41 40 38 37 37 37 37 38 37 36 35 35 33 30 29 29 29 31 33 34 33 31 30 31 34 35 35 34 35 36 37 37 37 35 34 33 31 30 29 30 31 33 34 35 36 38 38 39 39 39 39 39 38 38 37 37 36 36 36 36 37 37 37 38 40 40 40 40
24 25 27 28 28 28 28 28 28 29 30 31 31 32 34 35 37 39 41 40 38 37 37 36 36 36 36 36 36 36 34 32 30 29 27 28 29 30 30 30 30 31 33 34 35 36 35 34 34 34 33 32 31 30 29 29 30 32 34 36 37 38 38 38 38 38 38 38 38 38 37 37 36 35 35 35 35 35 35 36 37 37 38 38 39 39
25 26 26 26 26 26 25 26 27 29 30 32 34 36 37 37 38 40 41 41 39 37 37 37 36 36 36 36 37 37 35 31 28 25 22 23 25 27 30 29 30 31 33 33 36 37 35 32 29 28 29 29 29 29 30 32 34 35 36 37 37 37 37 36 36 36 36 37 37 38 37 37 36 35 35 35 35 35 35 36 36 36 37 37 38 38
26 26 25 24 23 23 24 26 28 31 34 37 40 42 42 41 41 42 42 41 39 37 37 37 37 36 35 34 34 34 32 29 24 20 20 23 27 30 31 31 31 31 32 32 32 34 34 32 28 26 26 28 29 31 33 34 35 36 35 35 35 35 35 35 35 35 36 36 37 37 37 36 36 35 35 34 34 34 34 35 35 36 37 37 37 38
26 25 23 22 22 24 26 30 33 37 40 42 43 44 44 44 43 42 41 39 37 36 36 37 36 34 33 31 29 29 29 29 25 22 23 27 30 32 32 32 32 31 31 29 28 29 32 34 32 30 28 29 32 34 35 35 34 34 34 34 35 35 35 34 34 34 35 36 37 37 36 36 35 35 34 34 34 34 34 34 35 35 36 37 37 38
24 23 23 24 27 29 33 36 39 41 43 44 45 45 44 43 42 41 39 38 36 35 35 35 34 33 31 30 29 30 31 32 30 28 27 29 31 32 32 31 30 30 30 29 29 29 30 33 35 35 33 33 34 35 34 33 33 33 34 34 35 35 35 34 34 34 35 36 36 36 36 35 35 34 34 34 34 34 34 34 34 34 35 36 38 40
24 26 28 31 33 36 38 40 42 43 44 45 45 44 43 42 41 39 38 37 35 34 33 33 32 32 32 31 32 33 34 34 32 30 28 29 30 32 32 31 30 31 31 30 30 29 30 32 35 37 37 36 34 34 33 33 33 33 33 33 34 34 34 34 34 34 35 36 36 36 36 35 35 34 34 34 34 34 34 34 34 35 36 37 39 41
28 31 33 36 37 39 41 42 43 43 44 44 43 42 41 40 39 38 37 36 34 33 32 31 31 31 32 32 33 35 36 35 33 31 29 29 31 32 33 32 31 31 31 30 30 30 30 32 33 34 35 36 35 34 32 32 32 32 32 33 33 33 34 34 35 35 36 36 36 36 35 35 34 34 33 33 34 34 34 35 36 36 37 38 39 40
32 34 36 38 39 40 42 42 43 43 43 42 41 40 39 38 37 36 36 35 34 32 31 31 30 31 31 33 35 37 39 38 36 33 31 30 31 32 33 32 31 31 31 30 30 31 31 32 33 33 34 35 36 35 34 32 31 32 32 33 33 34 34 35 35 36 36 36 35 35 34 33 33 33 33 33 34 35 36 36 37 38 38 37 37 38
35 37 38 39 39 40 41 41 42 42 41 40 39 38 37 37 36 36 36 35 34 33 32 32 32 32 33 34 36 38 40 39 37 34 31 30 30 31 33 33 32 31 31 31 31 31 32 32 33 33 34 34 34 35 35 33 33 33 33 34 34 34 35 35 35 35 35 35 34 34 33 33 32 32 33 34 35 36 37 38 38 38 38 37 37 36
37 38 38 39 39 39 40 40 40 40 40 39 38 37 37 37 36 36 36 36 35 35 34 34 33 33 33 34 35 36 37 37 35 32 30 28 29 30 32 33 33 32 31 32 33 32 32 32 33 33 32 31 31 33 34 35 35 35 35 36 36 36 36 35 34 33 33 33 33 33 33 33 33 33 33 35 36 37 38 39 39 39 38 38 37 37
37 37 38 38 38 38 38 38 39 38 38 38 37 38 38 38 38 38 37 36 35 34 33 33 32 32 32 32 33 34 34 33 32 30 28 26 27 28 30 32 32 32 32 32 32 32 31 32 32 32 32 32 32 33 35 35 36 36 36 37 37 36 35 34 33 32 31 32 33 33 32 32 32 32 33 35 36 37 38 39 39 39 39 38 38 38
35 36 37 37 37 37 37 37 38 38 38 38 39 39 40 39 39 38 37 36 34 33 32 31 31 32 32 32 32 32 31 30 29 27 26 25 25 26 28 30 32 32 31 30 30 30 30 31 32 33 33 34 35 37 37 37 37 37 37 38 38 37 35 34 33 32 31 32 33 33 32 32 32 33 34 35 36 37 37 38 39 38 38 39 39 39
36 37 37 37 37 37 37 37 38 38 38 39 40 40 40 39 38 37 36 34 33 32 31 31 31 31 32 31 31 30 29 28 27 25 25 24 24 25 27 29 30 30 29 28 28 29 30 31 32 33 34 34 35 37 39 39 38 37 36 37 36 35 35 35 34 33 32 32 31 31 31 32 33 34 35 36 36 37 37 37 38 38 38 38 38 38
36 37 37 37 37 37 37 38 38 39 39 39 39 39 38 37 36 35 34 33 32 31 30 30 30 30 31 30 30 29 27 26 25 25 24 24 24 25 26 26 26 26 27 28 28 29 30 31 32 33 35 35 36 37 38 38 37 36 35 35 35 36 37 36 34 33 31 31 30 30 31 33 35 36 37 37 37 37 38 38 38 39 38 37 36 36
36 36 36 36 37 38 38 38 38 39 38 38 38 37 36 35 34 33 33 33 32 31 30 29 28 29 29 29 29 27 26 25 24 24 25 25 24 24 24 24 24 24 26 27 29 30 30 31 32 33 34 35 36 36 36 36 37 36 35 34 35 36 35 35 33 32 31 32 32 33 33 34 35 36 38 38 39 39 38 38 38 38 37 36 35 34
35 35 35 36 37 38 38 38 38 38 37 36 36 35 35 34 33 33 32 32 31 30 29 27 27 28 29 30 29 27 25 24 24 24 24 24 23 23 22 22 22 23 24 26 29 30 31 31 32 33 34 35 35 35 36 37 37 36 35 34 34 33 32 34 34 33 32 33 33 33 34 35 36 37 39 39 40 39 39 39 38 36 35 34 34 34
34 34 35 36 37 37 37 37 37 36 35 35 35 35 34 33 32 31 31 30 30 29 27 27 26 27 28 28 28 27 25 24 24 23 23 23 22 22 21 21 22 22 23 25 27 30 31 32 33 33 33 33 34 34 35 36 36 36 35 33 32 31 31 33 35 35 34 34 34 35 35 35 37 39 40 40 41 40 40 38 37 35 35 34 34 33
33 34 35 35 36 36 35 35 35 35 34 34 34 34 34 32 31 30 29 29 28 28 27 26 25 26 27 27 26 26 25 25 24 24 23 23 22 21 21 21 22 23 24 25 27 28 29 31 33 33 32 32 33 34 34 34 35 35 34 33 31 31 31 32 34 35 35 35 35 36 37 38 39 40 40 41 41 40 39 38 37 36 35 34 33 32
32 33 34 34 34 34 34 34 33 34 34 34 34 33 33 32 31 30 29 28 27 27 26 25 24 24 26 26 26 26 26 26 25 25 24 23 22 21 21 22 22 23 24 26 27 28 29 30 31 32 32 32 33 33 32 32 32 33 32 32 31 31 32 33 33 34 34 35 36 37 38 38 39 39 39 40 40 39 38 37 36 35 34 33 33 32
31 32 32 33 33 33 33 33 33 33 33 33 33 32 31 31 30 29 28 27 27 26 25 24 24 24 25 26 25 25 25 26 27 26 25 24 23 22 22 22 23 24 25 26 27 28 29 29 29 29 29 31 32 32 31 30 29 30 30 30 31 32 33 34 35 35 34 35 36 37 38 38 38 38 39 40 39 39 38 37 35 34 34 33 32 32
30 31 32 32 32 33 33 32 32 32 32 32 32 31 31 30 29 28 28 27 26 24 24 24 23 24 25 25 24 24 24 25 27 27 26 25 24 23 23 24 24 25 26 26 27 27 27 27 27 26 25 26 28 30 30 29 28 28 29 30 31 32 33 35 36 35 35 35 37 37 37 36 36 36 37 38 39 39 39 37 36 34 33 32 32 32
29 30 31 31 32 32 32 32 31 31 32 32 32 31 30 30 29 28 27 26 25 24 23 23 23 23 24 24 23 23 24 25 25 26 25 24 24 24 25 26 26 27 27 27 27 27 27 26 26 24 22 22 24 26 28 29 29 29 29 29 30 31 33 35 36 36 36 36 37 37 37 35 35 35 35 35 37 38 39 38 36 34 33 32 32 33
29 29 30 30 30 31 31 31 30 31 31 32 32 32 31 30 29 28 26 25 24 23 22 22 22 23 24 24 24 23 24 24 25 25 24 24 24 25 26 27 27 27 28 28 27 27 27 26 26 24 22 20 19 21 24 26 28 29 28 29 29 31 32 34 35 36 36 35 36 36 36 35 34 33 33 33 34 36 38 37 36 35 34 34 34 35
28 29 29 29 29 30 30 30 30 30 31 31 31 31 31 31 29 27 26 24 23 22 21 21 21 22 23 24 24 23 23 23 24 24 24 24 24 25 26 27 27 27 27 27 27 27 26 26 26 25 24 20 18 18 19 23 26 28 29 30 30 31 32 34 35 35 35 34 34 35 36 35 34 32 31 32 33 35 36 37 37 37 37 37 37 37
Wind_Direction
299 300 301 301 302 303 304 306 307 308 309 311 312 312 313 313 313 314 314 315 315 316 316 315 315 316 316 317 318 318 319 320 320 320 320 320 319 319 318 317 317 316 316 315 315 315 315 315 315 314 313 312 310 309 308 307 306 305 303 302 301 301 300 298 296 294 292 291 290 289 288 288 286 285 285 284 283 283 282 282 281 281 280 279 279 279
300 301 301 302 303 303 304 306 307 306 307 308 309 310 311 312 313 313 314 314 314 314 314 314 314 314 315 315 316 317 318 319 319 319 319 319 318 318 318 317 316 315 315 314 314 313 313 313 312 311 311 310 309 308 307 306 305 304 302 301 301 300 299 298 297 296 294 293 292 291 290 290 289 288 287 286 285 284 284 283 282 282 281 280 279 278
301 301 302 303 303 303 303 305 306 305 305 306 308 309 311 311 311 312 312 313 313 313 313 312 313 313 314 314 315 316 317 317 317 317 316 316 315 315 315 314 313 312 312 311 311 311 311 310 309 309 309 308 307 306 305 304 303 302 302 301 300 300 299 298 297 296 295 294 294 293 292 291 290 289 288 287 286 285 285 284 283 282 281 280 279 278
301 302 303 304 304 303 302 304 305 305 305 306 308 309 310 310 310 310 311 311 311 311 312 311 312 312 312 312 313 314 314 314 313 313 312 312 312 312 311 311 310 310 309 309 309 309 309 308 307 307 306 305 305 304 303 303 302 302 301 300 299 298 297 297 296 295 294 293 293 292 291 290 290 289 288 288 287 286 285 284 284 283 282 281 280 278
302 302 303 303 303 302 302 304 304 305 306 307 308 309 310 309 309 309 310 309 309 309 309 310 310 309 309 309 310 310 310 310 310 310 310 309 310 310 309 309 308 308 307 307 308 307 305 305 304 304 304 303 302 302 301 301 302 301 301 299 297 296 295 294 294 294 293 292 291 290 290 289 289 288 288 287 286 286 285 284 284 283 283 282 280 280
301 301 301 301 301 301 302 303 304 305 307 308 308 309 309 308 308 307 307 307 307 307 307 306 306 307 306 307 307 307 307 307 307 308 309 309 309 308 308 308 307 306 306 306 305 304 302 301 301 302 302 301 300 300 300 301 302 302 300 298 296 295 294 293 293 293 292 291 290 290 289 289 288 288 287 286 286 286 285 285 284 283 283 282 281 280
301 301 301 301 301 302 303 303 305 306 307 308 308 308 307 306 305 304 304 305 306 307 307 307 306 306 304 304 304 305 305 306 306 307 307 307 307 307 306 305 305 304 304 303 302 301 300 300 300 301 300 300 300 300 300 300 301 301 300 299 297 295 294 294 293 292 292 291 290 290 289 289 288 288 287 287 286 286 285 285 284 284 283 283 282 281
301 301 301 301 303 304 304 304 305 307 307 307 307 306 306 305 304 304 304 305 307 307 307 307 306 304 302 302 302 303 304 305 305 305 305 305 306 306 305 304 304 303 302 301 299 299 300 300 300 300 300 300 300 299 298 298 297 297 297 297 296 295 294 293 293 292 292 292 291 290 289 289 288 288 288 287 287 287 286 286 285 285 284 284 283 283
300 301 302 302 302 304 305 305 305 306 306 304 303 303 304 304 305 305 305 304 304 304 304 304 303 302 301 301 302 302 303 304 304 304 304 304 305 305 304 303 302 301 300 300 300 301 300 300 300 299 299 299 299 297 296 296 295 294 294 294 294 293 292 292 292 292 292 292 291 290 289 289 288 288 288 288 288 288 288 288 287 286 285 285 284 284
299 300 302 302 302 302 302 302 303 303 303 302 300 300 300 303 304 305 304 303 302 301 302 301 301 302 303 303 303 304 304 304 303 303 304 305 305 305 303 303 303 303 302 302 302 302 300 299 298 297 297 297 297 297 296 296 295 294 293 293 292 292 292 291 291 292 292 292 292 291 290 290 289 289 289 289 289 289 288 288 287 287 286 286 285 285
298 298 300 300 301 300 299 298 300 302 302 302 302 301 299 300 301 302 303 302 302 303 303 302 301 302 303 304 304 305 306 305 304 304 305 306 306 306 305 303 302 302 302 301 300 300 299 298 297 297 297 297 297 297 297 297 296 295 294 294 294 294 293 293 292 292 292 292 292 291 291 290 290 290 289 289 289 289 288 288 288 287 287 287 286 286
295 296 296 296 297 298 298 298 299 301 302 302 302 301 300 299 299 300 300 301 302 303 304 304 302 302 302 304 305 306 307 307 306 305 305 305 305 305 303 301 299 299 299 298 297 297 298 298 298 297 297 298 298 298 298 297 297 297 297 297 297 296 295 294 293 292 292 292 291 291 290 290 290 290 290 289 289 289 289 289 289 288 288 288 287 286
293 294 294 295 295 296 297 298 299 300 300 300 300 299 299 300 300 300 299 300 301 303 304 304 304 303 302 303 305 306 306 306 305 304 304 303 302 301 300 299 298 297 297 297 296 297 297 298 298 298 298 298 298 298 298 298 298 298 298 298 297 296 294 293 292 292 291 291 291 291 291 291 291 291 291 291 291 291 290 290 290 289 289 288 288 287
292 293 293 293 293 294 295 296 297 297 297 297 296 297 297 299 300 300 300 299 301 303 304 304 303 303 303 304 305 306 306 305 304 303 302 300 299 299 298 297 297 297 297 297 297 297 298 298 298 298 298 299 298 298 298 298 298 298 297 296 295 295 294 293 293 293 293 293 292 292 292 292 292 292 292 292 292 292 291 291 291 290 290 289 289 288
291 291 291 291 291 292 293 294 294 294 294 295 295 296 297 299 300 300 300 300 302 304 305 303 303 303 303 304 306 307 307 305 303 302 301 299 298 297 297 297 297 297 297 297 297 298 298 298 297 297 297 297 297 298 297 297 297 297 298 298 297 297 297 296 296 295 294 294 293 293 293 293 293 293 293 293 292 292 292 291 291 290 290 290 289 289
288 289 288 289 290 290 291 290 291 292 293 294 295 296 298 299 300 301 301 301 302 304 305 305 305 305 304 305 306 307 307 305 303 301 301 299 298 298 298 297 296 297 297 297 297 297 298 297 297 297 296 296 297 297 297 297 298 299 300 300 300 300 299 298 297 296 295 294 293 293 293 292 292 292 292 291 291 291 291 290 290 290 289 289 289 289
285 286 286 286 287 287 289 289 289 290 291 294 295 296 296 296 298 300 300 300 302 303 302 303 304 304 304 305 306 307 308 306 303 301 300 299 299 299 298 297 297 297 297 298 297 297 298 298 297 297 297 296 297 298 298 299 300 301 302 302 301 300 299 298 297 296 295 294 293 292 291 290 290 290 290 290 290 290 290 290 290 290 290 290 289 289
282 282 282 283 283 285 287 288 289 289 290 293 295 297 296 295 296 298 298 299 300 300 300 300 300 300 300 301 303 305 307 305 303 301 300 298 298 298 299 298 297 297 297 297 297 298 298 298 297 296 297 297 298 299 300 301 302 303 303 303 301 300 299 298 296 295 293 292 291 290 289 289 290 290 290 290 290 291 291 292 292 292 292 291 291 290
280 280 279 280 282 283 285 286 287 288 289 292 295 296 296 296 296 296 297 298 298 298 298 298 298 297 297 298 300 303 305 304 303 301 299 297 297 299 300 300 299 297 296 297 298 298 298 298 297 297 297 298 299 300 301 302 303 303 302 302 300 299 298 297 296 294 292 291 290 290 290 290 291 291 291 291 291 291 291 292 292 292 292 292 292 291
280 279 278 279 281 283 283 284 285 287 289 291 293 294 294 296 297 298 298 299 298 298 297 297 297 297 297 297 299 301 303 303 302 300 298 296 296 298 300 301 299 298 297 296 297 299 299 298 297 297 298 299 300 301 302 302 302 302 301 301 300 299 299 297 296 294 292 291 291 291 292 292 292 292 292 291 291 291 291 291 291 291 291 291 291 291
279 279 280 281 281 281 282 283 285 287 289 291 292 292 294 297 299 300 300 300 299 298 298 297 297 298 298 298 298 300 302 302 301 299 297 296 296 297 300 300 299 298 297 297 298 299 298 298 297 297 298 300 301 301 301 302 302 302 302 302 302 301 300 298 296 295 293 293 293 293 293 293 293 292 292 292 291 291 291 290 290 290 290 291 291 291
279 281 282 282 280 280 281 284 286 288 290 291 292 292 295 297 299 300 301 301 300 299 299 298 297 296 296 296 297 299 301 301 300 297 297 295 295 296 300 300 300 298 297 298 299 300 299 298 297 298 299 300 301 301 302 303 304 304 303 303 302 301 300 298 297 296 295 295 294 294 294 294 294 293 293 292 292 292 291 291 290 290 290 290 290 289
282 283 285 283 281 281 282 285 288 291 293 294 294 296 298 299 299 300 301 301 300 299 298 297 296 296 296 296 297 299 300 300 298 296 295 292 293 296 300 301 300 298 297 298 299 300 299 298 298 298 300 301 302 302 303 303 304 303 303 302 301 300 299 298 297 297 296 296 296 295 295 294 294 293 293 292 292 291 290 290 289 289 288 288 287 286
283 283 283 283 283 285 287 290 292 295 296 298 300 302 303 301 299 298 297 297 297 297 297 297 298 297 297 297 297 298 298 298 297 295 293 291 291 294 298 300 300 299 297 299 300 300 300 300 300 300 300 301 302 302 303 303 303 303 302 301 301 299 299 298 297 297 296 295 295 294 294 293 293 292 291 290 290 290 289 289 289 288 288 287 287 286
283 283 284 285 287 290 292 294 295 297 299 300 301 301 300 299 297 296 295 296 297 297 298 298 297 296 296 297 297 297 298 298 297 294 293 291 292 294 296 298 299 299 298 300 301 301 301 301 301 301 301 301 302 303 304 305 304 304 302 302 301 300 299 297 296 295 294 293 293 293 293 293 292 292 292 291 291 291 291 290 290 289 289 288 288 288
286 287 288 290 293 294 295 295 296 295 295 294 292 291 291 293 295 296 296 297 297 298 298 296 295 294 296 296 297 297 298 298 296 294 293 292 292 294 296 298 299 299 299 301 302 302 301 301 301 302 303 303 304 304 305 305 304 302 302 301 300 298 296 295 294 294 294 294 295 295 295 295 295 295 294 294 293 292 291 290 290 290 290 291 292 292
290 291 292 293 294 294 293 292 290 288 286 284 282 283 287 292 295 296 295 295 296 296 295 294 293 294 295 295 295 296 298 297 296 295 294 293 292 292 295 298 300 300 300 301 301 301 301 301 302 303 304 305 306 306 306 304 303 301 300 299 297 295 295 295 295 295 296 297 298 298 298 298 297 296 295 294 292 291 290 291 292 293 294 296 298 298
294 294 293 292 291 290 288 286 284 282 281 281 283 287 292 294 293 292 292 294 295 294 292 291 291 292 293 293 295 296 297 296 296 297 297 294 290 289 293 298 300 300 301 301 301 302 302 301 302 303 305 305 306 305 304 302 300 299 298 297 296 296 296 297 297 298 299 300 300 300 300 300 299 298 297 295 293 293 294 295 297 299 301 302 303 302
296 295 293 292 289 287 284 282 281 282 284 288 293 296 297 295 292 290 291 293 293 291 289 288 288 289 291 293 295 297 296 296 298 301 299 294 289 289 294 298 300 301 302 303 304 304 303 302 302 303 304 305 304 302 301 301 301 300 299 298 298 298 298 298 299 299 300 301 301 302 302 302 302 301 300 299 298 299 300 301 303 305 306 305 304 303
298 296 294 290 286 282 281 281 284 288 292 296 299 301 300 297 294 293 294 294 292 289 288 288 288 289 290 293 295 296 296 297 299 301 297 293 291 293 296 298 299 300 302 304 306 306 305 304 304 304 303 303 301 300 301 302 302 302 301 300 300 300 300 300 300 300 300 301 302 303 304 304 305 305 305 305 305 305 306 307 308 308 307 306 304 303
296 292 288 283 280 280 282 286 291 295 298 300 301 301 301 299 298 296 296 294 291 289 289 289 289 289 289 290 291 291 292 295 297 297 294 293 293 294 297 298 299 299 301 303 304 304 305 305 305 305 304 303 302 301 302 303 303 303 302 301 301 301 302 302 301 301 301 302 303 305 306 307 308 309 310 310 310 310 310 310 310 309 307 305 303 302
287 281 278 278 281 285 289 293 297 299 301 301 301 301 300 300 299 298 297 295 293 292 290 290 290 290 288 286 284 284 286 291 294 296 295 294 294 294 296 297 297 298 300 300 299 298 299 301 303 305 305 304 303 303 303 303 302 302 302 302 301 302 303 303 302 302 303 304 306 307 309 310 311 312 313 313 313 312 312 311 310 309 307 305 303 302
278 278 280 284 288 292 295 298 300 301 301 301 301 301 301 301 300 299 298 297 295 294 291 290 289 289 288 286 283 282 284 288 292 295 294 293 292 293 295 295 296 297 299 300 298 296 294 296 299 303 304 304 303 302 302 302 302 302 303 303 302 302 303 304 304 304 305 307 308 310 311 312 313 314 314 313 312 312 311 310 309 308 306 304 302 301
280 284 288 292 295 297 298 299 300 301 301 301 302 302 302 301 301 300 299 298 296 294 292 289 287 286 286 285 284 284 285 288 291 293 292 291 290 291 293 294 296 297 299 300 299 298 296 296 298 300 302 303 302 302 301 302 303 304 304 303 302 302 303 305 306 307 308 309 310 311 312 313 313 312 312 311 310 309 309 309 309 308 307 304 302 301
288 291 293 295 297 298 299 300 300 301 302 302 302 302 301 301 300 299 299 298 297 295 292 288 285 283 282 281 282 283 286 290 293 293 291 290 290 291 292 293 294 297 299 298 299 299 299 298 298 299 301 302 302 302 302 303 304 305 305 304 303 303 304 306 307 309 310 311 311 311 312 311 311 309 308 308 307 308 308 309 309 309 308 307 305 302
293 294 295 296 298 299 299 300 301 302 303 303 303 302 301 301 300 300 299 298 297 294 291 288 285 283 281 280 280 283 287 292 295 295 293 292 291 291 291 291 293 295 296 297 297 298 299 299 299 299 299 300 301 302 304 305 305 306 305 305 305 306 307 308 310 311 311 311 311 310 310 309 308 307 306 306 307 307 308 309 310 310 310 310 309 306
294 295 296 297 298 299 300 301 302 303 304 303 303 302 301 301 300 300 299 298 297 294 292 290 288 286 285 284 284 286 290 294 297 297 296 295 293 292 291 291 293 294 293 294 296 297 298 298 299 299 299 298 298 300 303 306 307 307 306 307 308 309 310 311 313 313 311 310 309 309 309 308 307 306 306 307 307 308 309 310 311 312 312 312 311 309
295 296 297 298 299 300 301 302 303 303 303 302 301 301 301 301 301 301 300 300 299 298 296 295 294 293 293 292 291 292 294 296 298 299 300 299 296 292 290 290 291 291 291 292 294 296 296 296 297 298 298 298 298 299 301 304 305 306 307 309 310 311 312 313 314 313 310 309 308 309 309 308 307 307 307 308 308 309 309 310 312 312 313 312 312 312
295 296 297 298 299 301 301 302 303 303 302 302 302 302 303 303 303 303 303 303 303 302 301 300 299 298 297 296 295 295 296 297 299 300 301 299 296 292 289 288 289 291 293 295 295 295 293 293 293 294 295 297 299 300 302 303 304 305 308 311 312 313 313 314 314 312 310 310 310 310 309 309 308 307 307 308 308 309 309 309 310 311 311 311 311 312
295 297 298 300 301 302 302 303 303 303 303 303 304 304 304 305 306 306 307 307 306 305 304 302 300 299 298 297 297 297 298 299 301 301 299 296 292 289 289 290 292 295 298 299 298 295 293 291 291 291 293 295 297 299 301 303 304 305 307 308 309 311 314 315 314 313 313 312 311 310 308 308 308 308 308 308 309 308 308 308 309 310 310 309 308 309
297 298 299 301 303 304 304 304 304 304 304 304 305 306 307 308 309 310 309 308 306 304 303 302 301 300 299 299 299 299 300 301 301 300 298 294 292 292 295 296 298 299 300 300 299 296 293 293 293 293 294 295 296 298 299 301 303 305 306 305 306 309 313 314 315 314 314 312 310 309 308 308 309 309 309 310 309 309 309 308 308 309 310 309 308 306
298 299 300 302 303 304 305 305 305 305 305 306 307 308 310 310 310 310 309 307 306 305 304 303 302 301 301 301 301 301 301 301 300 300 299 299 300 302 302 302 301 301 301 300 298 297 295 294 294 294 295 297 298 298 299 302 305 306 306 306 308 310 312 314 315 315 313 312 310 310 309 309 310 310 310 310 310 310 310 310 309 309 309 308 307 306
298 300 302 303 304 305 305 306 306 307 307 308 309 310 310 310 310 309 308 307 307 307 307 306 305 303 302 302 302 303 302 301 300 299 300 303 305 307 306 305 305 304 303 300 297 297 298 297 296 296 298 300 300 299 299 302 305 308 309 309 310 309 307 311 314 315 313 311 310 311 310 310 311 311 311 311 311 311 312 312 311 310 310 308 308 307
299 300 302 304 305 306 306 307 307 308 308 308 309 309 310 310 310 310 310 308 308 308 307 307 306 305 303 302 302 302 303 302 301 301 303 306 309 310 310 310 309 308 305 300 297 297 299 299 300 302 304 304 301 299 299 301 304 307 310 312 311 307 304 306 310 312 312 312 312 312 312 312 312 313 313 313 313 313 313 313 312 311 312 311 310 309
299 301 303 304 305 306 306 307 307 308 308 309 309 310 311 312 312 312 310 309 308 307 307 307 307 304 301 300 300 301 301 302 303 304 307 310 313 314 314 313 312 309 306 301 298 297 297 298 302 306 309 307 303 300 299 301 304 308 311 313 312 308 305 307 309 311 312 312 313 313 314 314 315 315 315 315 315 315 314 314 313 313 313 313 312 309
301 303 304 305 306 307 307 307 308 308 309 310 310 311 312 313 313 312 310 309 308 307 308 307 305 301 298 298 299 300 301 303 305 307 310 312 315 316 316 315 313 309 305 302 301 299 298 299 302 306 308 307 305 304 303 304 305 307 310 312 311 310 310 310 311 312 312 313 313 314 316 317 317 316 315 314 315 315 315 315 315 314 314 313 312 311
303 304 306 306 307 307 307 308 308 309 310 311 311 311 312 312 312 311 310 309 308 308 308 307 303 298 296 296 298 299 301 303 306 309 312 315 317 318 317 315 312 309 307 304 303 302 302 303 304 306 305 304 303 305 308 309 308 307 308 310 311 311 311 311 313 314 315 314 315 316 318 319 318 317 316 316 315 315 316 317 316 316 315 314 314 313
304 305 306 307 307 308 308 309 310 311 312 312 312 311 311 311 311 310 309 309 309 308 307 305 302 298 297 297 298 299 300 302 306 310 313 316 318 319 318 315 313 311 309 308 308 307 306 307 308 308 306 303 302 304 309 312 311 309 310 310 311 311 311 313 315 317 317 317 317 318 319 318 317 317 317 317 316 316 317 317 317 317 316 316 316 315
305 306 306 307 308 309 310 310 311 312 313 312 312 311 311 311 311 310 310 310 309 308 306 304 301 299 297 297 298 300 301 303 306 310 313 315 317 317 317 316 316 315 315 314 314 314 313 313 314 314 313 309 306 305 309 312 312 312 311 310 310 311 312 314 316 318 319 319 319 319 320 319 319 318 318 316 315 315 316 317 318 318 319 319 319 318
305 306 306 307 308 310 311 311 312 312 313 312 312 311 311 311 311 311 310 310 309 308 306 303 301 299 297 297 299 301 303 305 307 309 312 314 315 316 317 318 319 319 320 319 320 319 318 318 319 321 323 320 313 308 307 310 312 312 310 310 310 312 313 315 317 319 320 320 320 320 321 321 322 321 320 317 315 315 316 317 318 319 321 321 321 322
306 306 307 307 309 310 311 312 312 312 312 311 311 310 311 311 311 311 310 309 308 307 305 303 301 298 296 297 300 302 304 306 306 308 311 313 315 316 318 319 321 321 321 320 320 320 320 320 320 323 327 328 323 313 308 307 309 311 311 312 314 315 315 316 318 321 321 321 320 321 323 323 323 323 321 319 317 316 316 317 318 320 322 323 324 324